Location: アルンシュタイン
(50.0000°N, 10.0000°E)
Time: 17:44:44
(UTC+02:00)

Explorer 7 - Visible Passes

Search period start: 11 September 2024 00:00
Search period end: 21 September 2024 00:00
Orbit: 462 x 610 km, 50.3° (Epoch: 10 September)

Date Brightness Start Highest point End Pass type
(mag) Time Alt. Az. Time Alt. Az. Time Alt. Az.
11 Sep 8.6 04:38:31 16° SSE 04:38:59 17° SE 04:41:24 10° E visible
11 Sep 6.9 06:14:20 10° WSW 06:17:56 58° SSE 06:21:31 10° E visible
12 Sep 8.4 04:29:03 20° SE 04:29:03 20° SE 04:31:38 10° E visible
12 Sep 6.7 06:04:25 11° WSW 06:07:55 66° SSE 06:11:31 10° E visible
13 Sep 8.4 04:19:29 22° SE 04:19:29 22° SE 04:21:45 10° E visible
13 Sep 6.5 05:54:51 15° WSW 05:57:51 73° SSE 06:01:29 10° E visible
14 Sep 8.5 04:09:51 23° ESE 04:09:51 23° ESE 04:11:46 10° E visible
14 Sep 6.5 05:45:13 19° WSW 05:47:45 80° SSE 05:51:24 10° E visible
15 Sep 8.7 04:00:10 21° ESE 04:00:10 21° ESE 04:01:43 10° E visible
15 Sep 6.4 05:35:31 24° WSW 05:37:37 86° S 05:41:16 10° E visible
16 Sep 8.9 03:50:25 18° E 03:50:25 18° E 03:51:36 10° E visible
16 Sep 6.4 05:25:46 30° W 05:27:27 90° N 05:31:05 10° E visible
17 Sep 9.2 03:40:37 15° E 03:40:37 15° E 03:41:25 10° E visible
17 Sep 6.4 05:15:58 39° W 05:17:14 86° N 05:20:52 10° E visible
18 Sep 9.5 03:30:48 12° E 03:30:48 12° E 03:31:11 10° E visible
18 Sep 6.4 05:06:09 52° W 05:06:58 84° N 05:10:37 10° E visible
19 Sep 6.4 04:56:19 71° WNW 04:56:40 84° N 05:00:19 10° E visible
20 Sep 6.5 04:46:29 80° ENE 04:46:29 80° ENE 04:49:58 10° E visible
20 Sep 6.7 06:22:07 10° W 06:25:42 53° SSW 06:29:13 10° SE visible
